Location: Isle of Man Observatory
(54.1776°N, 4.6264°W)
Time: 00:03:28
(UTC+02:00)

ISS - Visible Passes

Search period start: 14 September 2024 00:00
Search period end: 24 September 2024 00:00
Orbit: 414 x 424 km, 51.6° (Epoch: 13 September)

Date Brightness Start Highest point End Pass type
(mag) Time Alt. Az. Time Alt. Az. Time Alt. Az.
14 Sep -3.0 22:14:54 10° SW 22:17:57 32° SSE 22:18:19 31° SE visible
14 Sep -0.8 23:51:09 10° WSW 23:51:17 11° WSW 23:51:17 11° WSW visible
15 Sep -2.5 21:27:40 10° SSW 21:30:30 25° SSE 21:32:45 14° ESE visible
15 Sep -2.5 23:03:38 10° WSW 23:05:42 32° SW 23:05:42 32° SW visible
16 Sep -3.4 22:16:05 10° WSW 22:19:21 47° SSE 22:19:59 40° SE visible
16 Sep -0.8 23:52:38 10° W 23:52:56 12° W 23:52:56 12° W visible
17 Sep -3.1 21:28:33 10° SW 21:31:44 40° SSE 21:34:08 15° E visible
17 Sep -2.4 23:04:58 10° W 23:07:05 33° WSW 23:07:05 33° WSW visible
18 Sep -3.6 22:17:16 10° WSW 22:20:34 56° S 22:21:07 48° SE visible
18 Sep -0.6 23:53:56 10° W 23:54:03 11° W 23:54:03 11° W visible
19 Sep -3.5 21:29:32 10° WSW 21:32:48 52° S 21:35:06 18° E visible
19 Sep -2.1 23:06:07 10° W 23:08:01 28° WSW 23:08:01 28° WSW visible
20 Sep -3.5 22:18:17 10° W 22:21:35 52° S 22:21:55 49° SSE visible
21 Sep -3.5 21:30:25 10° W 21:33:42 55° S 21:35:46 21° ESE visible
21 Sep -1.6 23:07:08 10° W 23:08:41 21° WSW 23:08:41 21° WSW visible
22 Sep -3.0 22:19:08 10° W 22:22:18 39° SSW 22:22:28 39° S visible
23 Sep -3.2 21:31:06 10° W 21:34:21 46° SSW 21:36:13 22° SE visible
23 Sep -1.1 23:08:10 10° W 23:09:08 15° WSW 23:09:08 15° WSW visible
